TimeEST,TemperatureF,Dew PointF,Humidity,Sea Level PressureIn,VisibilityMPH,Wind Direction,Wind SpeedMPH,Gust SpeedMPH,PrecipitationIn,Events,Conditions,WindDirDegrees,DateUTC
12:15 AM,39.2,39.2,100,30.13,7.0,Calm,Calm,-,N/A,,Clear,0,2012-11-21 05:15:00
12:35 AM,37.9,37.9,100,30.13,10.0,Calm,Calm,-,N/A,,Clear,0,2012-11-21 05:35:00
12:55 AM,38.5,38.5,100,30.13,10.0,Calm,Calm,-,N/A,,Clear,0,2012-11-21 05:55:00
1:15 AM,38.3,38.3,100,30.13,10.0,Calm,Calm,-,N/A,,Clear,0,2012-11-21 06:15:00
1:35 AM,38.1,38.1,100,30.13,7.0,Calm,Calm,-,N/A,,Clear,0,2012-11-21 06:35:00
1:55 AM,37.4,37.4,100,30.13,10.0,Calm,Calm,-,N/A,,Clear,0,2012-11-21 06:55:00
2:15 AM,36.7,36.7,100,30.13,10.0,Calm,Calm,-,N/A,,Clear,0,2012-11-21 07:15:00
2:35 AM,36.7,36.7,100,30.13,7.0,Calm,Calm,-,N/A,,Clear,0,2012-11-21 07:35:00
2:55 AM,36.5,36.5,100,30.13,10.0,Calm,Calm,-,N/A,,Clear,0,2012-11-21 07:55:00
3:15 AM,36.3,36.3,100,30.13,10.0,Calm,Calm,-,N/A,,Clear,0,2012-11-21 08:15:00
3:35 AM,35.6,35.6,100,30.13,10.0,Calm,Calm,-,N/A,,Clear,0,2012-11-21 08:35:00
3:55 AM,35.6,35.6,100,30.13,10.0,North,-9999.0,-,N/A,,Clear,0,2012-11-21 08:55:00
4:15 AM,35.1,35.1,100,30.13,10.0,Calm,Calm,-,N/A,,Clear,0,2012-11-21 09:15:00
4:35 AM,35.1,35.1,100,30.13,7.0,Calm,Calm,-,N/A,,Clear,0,2012-11-21 09:35:00
4:55 AM,34.9,34.9,100,30.14,10.0,Calm,Calm,-,N/A,,Clear,0,2012-11-21 09:55:00
5:15 AM,33.8,33.8,100,30.14,7.0,Calm,Calm,-,N/A,,Clear,0,2012-11-21 10:15:00
5:35 AM,33.3,33.3,100,30.15,7.0,Calm,Calm,-,N/A,,Clear,0,2012-11-21 10:35:00
5:55 AM,32.9,32.9,100,30.15,10.0,Calm,Calm,-,N/A,,Clear,0,2012-11-21 10:55:00
6:15 AM,33.1,33.1,100,30.15,7.0,Calm,Calm,-,N/A,,Clear,0,2012-11-21 11:15:00
6:35 AM,32.7,32.7,100,30.15,10.0,Calm,Calm,-,N/A,,Clear,0,2012-11-21 11:35:00
6:55 AM,32.4,32.4,100,30.16,7.0,Calm,Calm,-,N/A,,Clear,0,2012-11-21 11:55:00
7:15 AM,32.4,32.4,100,30.16,7.0,Calm,Calm,-,N/A,,Clear,0,2012-11-21 12:15:00
7:35 AM,32.9,32.9,100,30.17,10.0,Calm,Calm,-,N/A,,Clear,0,2012-11-21 12:35:00
7:55 AM,34.0,34.0,100,30.17,10.0,Calm,Calm,-,N/A,,Clear,0,2012-11-21 12:55:00
8:15 AM,37.6,37.6,100,30.18,10.0,Calm,Calm,-,N/A,,Clear,0,2012-11-21 13:15:00
8:35 AM,39.7,39.7,100,30.19,10.0,Calm,Calm,-,N/A,,Clear,0,2012-11-21 13:35:00
8:55 AM,42.8,42.8,100,30.19,10.0,Calm,Calm,-,N/A,,Clear,0,2012-11-21 13:55:00
9:15 AM,46.2,45.7,98,30.20,10.0,Calm,Calm,-,N/A,,Clear,0,2012-11-21 14:15:00
9:35 AM,50.4,48.0,92,30.20,10.0,Calm,Calm,-,N/A,,Clear,0,2012-11-21 14:35:00
9:55 AM,52.7,48.2,85,30.21,10.0,ENE,3.5,-,N/A,,Clear,70,2012-11-21 14:55:00
10:15 AM,56.5,48.4,74,30.21,10.0,ENE,3.5,-,N/A,,Clear,60,2012-11-21 15:15:00
10:35 AM,57.9,46.9,67,30.20,10.0,NE,3.5,-,N/A,,Clear,40,2012-11-21 15:35:00
10:55 AM,58.8,46.9,65,30.20,10.0,NNE,6.9,-,N/A,,Clear,30,2012-11-21 15:55:00
11:15 AM,59.9,46.6,61,30.20,10.0,North,5.8,-,N/A,,Clear,360,2012-11-21 16:15:00
11:35 AM,61.3,46.2,58,30.19,10.0,Calm,Calm,-,N/A,,Clear,0,2012-11-21 16:35:00
11:55 AM,62.1,44.8,53,30.19,10.0,North,6.9,-,N/A,,Clear,10,2012-11-21 16:55:00
12:15 PM,62.8,43.7,50,30.18,10.0,NNE,5.8,-,N/A,,Clear,20,2012-11-21 17:15:00
12:35 PM,63.7,44.1,49,30.18,10.0,NE,9.2,-,N/A,,Clear,40,2012-11-21 17:35:00
12:55 PM,63.7,42.8,47,30.17,10.0,NE,6.9,-,N/A,,Clear,50,2012-11-21 17:55:00
1:15 PM,63.9,42.3,45,30.16,10.0,NE,4.6,-,N/A,,Clear,50,2012-11-21 18:15:00
1:35 PM,65.1,41.7,42,30.16,10.0,North,8.1,-,N/A,,Clear,10,2012-11-21 18:35:00
1:55 PM,65.5,42.4,43,30.15,10.0,North,9.2,-,N/A,,Clear,10,2012-11-21 18:55:00
2:15 PM,65.5,42.4,43,30.15,10.0,North,6.9,-,N/A,,Clear,360,2012-11-21 19:15:00
2:35 PM,65.7,42.4,43,30.15,10.0,NNW,4.6,-,N/A,,Clear,330,2012-11-21 19:35:00
2:55 PM,65.7,41.9,42,30.14,10.0,Calm,Calm,-,N/A,,Clear,0,2012-11-21 19:55:00
3:15 PM,66.4,41.9,41,30.14,10.0,NE,5.8,-,N/A,,Clear,40,2012-11-21 20:15:00
3:35 PM,66.0,41.4,41,30.15,10.0,North,10.4,-,N/A,,Clear,350,2012-11-21 20:35:00
3:55 PM,65.7,41.5,41,30.15,10.0,NNE,5.8,-,N/A,,Clear,20,2012-11-21 20:55:00
4:15 PM,65.3,41.4,42,30.15,10.0,NNE,6.9,-,N/A,,Clear,20,2012-11-21 21:15:00
4:35 PM,64.6,41.9,44,30.15,10.0,NNE,4.6,-,N/A,,Clear,20,2012-11-21 21:35:00
4:55 PM,63.1,42.4,47,30.16,10.0,NE,3.5,-,N/A,,Clear,40,2012-11-21 21:55:00
5:15 PM,60.4,42.8,52,30.16,10.0,Calm,Calm,-,N/A,,Clear,0,2012-11-21 22:15:00
5:35 PM,56.7,43.7,62,30.16,10.0,Calm,Calm,-,N/A,,Clear,0,2012-11-21 22:35:00
5:55 PM,53.6,43.5,69,30.17,10.0,Calm,Calm,-,N/A,,Clear,0,2012-11-21 22:55:00
6:15 PM,51.8,43.7,74,30.17,10.0,Calm,Calm,-,N/A,,Clear,0,2012-11-21 23:15:00
6:35 PM,50.5,43.0,75,30.18,10.0,Calm,Calm,-,N/A,,Clear,0,2012-11-21 23:35:00
6:55 PM,48.9,42.8,79,30.18,10.0,Calm,Calm,-,N/A,,Clear,0,2012-11-21 23:55:00
7:15 PM,47.1,42.8,85,30.18,10.0,Calm,Calm,-,N/A,,Clear,0,2012-11-22 00:15:00
7:35 PM,46.2,42.4,87,30.18,10.0,Calm,Calm,-,N/A,,Clear,0,2012-11-22 00:35:00
7:55 PM,45.0,41.9,89,30.18,10.0,Calm,Calm,-,N/A,,Clear,0,2012-11-22 00:55:00
8:15 PM,44.2,41.9,91,30.19,10.0,Calm,Calm,-,N/A,,Clear,0,2012-11-22 01:15:00
8:35 PM,43.7,41.9,93,30.19,10.0,Calm,Calm,-,N/A,,Clear,0,2012-11-22 01:35:00
8:55 PM,42.4,41.0,95,30.19,10.0,Calm,Calm,-,N/A,,Clear,0,2012-11-22 01:55:00
9:15 PM,42.1,40.5,94,30.20,10.0,Calm,Calm,-,N/A,,Clear,0,2012-11-22 02:15:00
9:35 PM,41.0,40.1,97,30.20,10.0,Calm,Calm,-,N/A,,Clear,0,2012-11-22 02:35:00
9:55 PM,40.5,39.9,98,30.20,10.0,Calm,Calm,-,N/A,,Clear,0,2012-11-22 02:55:00
10:15 PM,39.6,39.4,99,30.20,10.0,Calm,Calm,-,N/A,,Clear,0,2012-11-22 03:15:00
10:35 PM,39.4,39.4,100,30.20,10.0,Calm,Calm,-,N/A,,Clear,0,2012-11-22 03:35:00
10:55 PM,38.7,38.7,100,30.20,10.0,Calm,Calm,-,N/A,,Clear,0,2012-11-22 03:55:00
11:15 PM,38.5,38.5,100,30.20,10.0,Calm,Calm,-,N/A,,Clear,0,2012-11-22 04:15:00
11:35 PM,37.4,37.4,100,30.21,10.0,Calm,Calm,-,N/A,,Clear,0,2012-11-22 04:35:00
11:55 PM,37.4,37.4,100,30.21,10.0,Calm,Calm,-,N/A,,Clear,0,2012-11-22 04:55:00